• In Netherlands
  • List of Countries
  • For 7 days
  • Water Temperature
  • Satellite Maps
  • Weather Map
  • Weather Widgets
  • user-avatar
    Login

    Hourly Weather Bruges

    Today, 26 July, Wednesday

    Time Temperature Precipitation Wind Pressure Humidity
    00:00 +14°C° 0 mm 3 mps 758 mmHg 92%
    01:00 +15°C° 0 mm 2 mps 758 mmHg 93%
    02:00 +14°C° 0 mm 2 mps 758 mmHg 93%
    03:00 +14°C° 0 mm 2 mps 758 mmHg 93%
    04:00 +15°C° 0 mm 2 mps 758 mmHg 92%
    05:00 +15°C° 0 mm 2 mps 757 mmHg 90%
    06:00 +16°C° 0 mm 3 mps 757 mmHg 89%
    07:00 +18°C° 0 mm 3 mps 757 mmHg 83%
    08:00 +19°C° 0 mm 4 mps 757 mmHg 78%
    09:00 +21°C° 0 mm 5 mps 757 mmHg 72%
    10:00 +22°C° 0 mm 5 mps 756 mmHg 68%
    11:00 +23°C° 0 mm 5 mps 756 mmHg 65%
    12:00 +23°C° 0 mm 6 mps 756 mmHg 61%
    13:00 +23°C° 0.1 mm 6 mps 756 mmHg 65%
    14:00 +22°C° 0.1 mm 7 mps 755 mmHg 69%
    15:00 +22°C° 0.1 mm 7 mps 755 mmHg 73%
    16:00 +21°C° 0.5 mm 7 mps 755 mmHg 79%
    17:00 +20°C° 0.5 mm 7 mps 755 mmHg 85%
    18:00 +18°C° 0.5 mm 7 mps 754 mmHg 91%
    19:00 +18°C° 0.1 mm 7 mps 754 mmHg 91%
    20:00 +18°C° 0.1 mm 7 mps 754 mmHg 91%
    21:00 +18°C° 0.1 mm 7 mps 754 mmHg 92%
    22:00 +17°C° 0 mm 7 mps 754 mmHg 92%
    23:00 +17°C° 0 mm 7 mps 755 mmHg 91%

    Tomorrow, 27 July, Thursday

    Time Temperature Precipitation Wind Pressure Humidity
    00:00 +17°C° 0 mm 7 mps 755 mmHg 91%
    01:00 +16°C° 0 mm 6 mps 755 mmHg 90%
    02:00 +15°C° 0 mm 6 mps 755 mmHg 90%
    03:00 +15°C° 0 mm 6 mps 755 mmHg 89%
    04:00 +15°C° 0 mm 6 mps 755 mmHg 87%
    05:00 +15°C° 0 mm 5 mps 755 mmHg 86%
    06:00 +15°C° 0 mm 5 mps 755 mmHg 84%
    07:00 +16°C° 0 mm 5 mps 756 mmHg 79%
    08:00 +17°C° 0 mm 6 mps 756 mmHg 75%
    09:00 +17°C° 0 mm 6 mps 756 mmHg 70%
    10:00 +19°C° 0 mm 6 mps 756 mmHg 68%
    11:00 +19°C° 0 mm 6 mps 756 mmHg 67%
    12:00 +20°C° 0 mm 6 mps 756 mmHg 65%
    13:00 +20°C° 0.1 mm 6 mps 755 mmHg 64%
    14:00 +20°C° 0.1 mm 6 mps 755 mmHg 64%
    15:00 +21°C° 0.1 mm 7 mps 755 mmHg 63%
    16:00 +20°C° 0.1 mm 7 mps 755 mmHg 65%
    17:00 +20°C° 0.1 mm 7 mps 755 mmHg 68%
    18:00 +18°C° 0.1 mm 7 mps 755 mmHg 70%
    19:00 +17°C° 0 mm 7 mps 756 mmHg 74%
    20:00 +16°C° 0 mm 7 mps 756 mmHg 78%
    21:00 +15°C° 0 mm 7 mps 756 mmHg 81%
    22:00 +14°C° 0 mm 7 mps 756 mmHg 83%
    23:00 +14°C° 0 mm 7 mps 756 mmHg 85%

    Day after tomorrow, 28 July, Friday

    Time Temperature Precipitation Wind Pressure Humidity
    00:00 +14°C° 0 mm 7 mps 756 mmHg 87%
    01:00 +14°C° 0 mm 7 mps 757 mmHg 87%
    02:00 +14°C° 0 mm 6 mps 757 mmHg 88%
    03:00 +14°C° 0 mm 6 mps 757 mmHg 89%
    04:00 +14°C° 0.1 mm 6 mps 757 mmHg 87%
    05:00 +15°C° 0.1 mm 6 mps 757 mmHg 86%
    06:00 +15°C° 0.1 mm 7 mps 757 mmHg 84%
    07:00 +16°C° 0.1 mm 7 mps 758 mmHg 78%
    08:00 +17°C° 0.1 mm 7 mps 758 mmHg 71%
    09:00 +20°C° 0.1 mm 7 mps 758 mmHg 65%
    10:00 +20°C° 0 mm 7 mps 758 mmHg 63%
    11:00 +21°C° 0 mm 7 mps 759 mmHg 61%
    12:00 +21°C° 0 mm 7 mps 759 mmHg 58%
    13:00 +22°C° 0 mm 7 mps 759 mmHg 58%
    14:00 +22°C° 0 mm 7 mps 759 mmHg 57%
    15:00 +22°C° 0 mm 7 mps 759 mmHg 57%
    16:00 +21°C° 0 mm 7 mps 759 mmHg 61%
    17:00 +21°C° 0 mm 6 mps 758 mmHg 66%
    18:00 +20°C° 0 mm 5 mps 758 mmHg 70%
    19:00 +19°C° 0 mm 5 mps 758 mmHg 71%
    20:00 +19°C° 0 mm 5 mps 758 mmHg 72%
    21:00 +17°C° 0 mm 5 mps 758 mmHg 74%
    22:00 +17°C° 0.1 mm 6 mps 758 mmHg 75%
    23:00 +17°C° 0.1 mm 7 mps 758 mmHg 76%

    29 July, Saturday

    Time Temperature Precipitation Wind Pressure Humidity
    00:00 +17°C° 0.1 mm 8 mps 757 mmHg 77%
    01:00 +17°C° 0.1 mm 8 mps 757 mmHg 78%
    02:00 +17°C° 0.1 mm 8 mps 757 mmHg 80%
    03:00 +17°C° 0.1 mm 8 mps 757 mmHg 82%
    04:00 +17°C° 0.1 mm 8 mps 757 mmHg 83%
    05:00 +17°C° 0.1 mm 8 mps 757 mmHg 83%
    06:00 +17°C° 0.1 mm 8 mps 757 mmHg 84%
    07:00 +18°C° 0.1 mm 8 mps 758 mmHg 81%
    08:00 +19°C° 0.1 mm 9 mps 758 mmHg 79%
    09:00 +19°C° 0.1 mm 9 mps 759 mmHg 76%
    10:00 +21°C° 0 mm 9 mps 759 mmHg 69%
    11:00 +22°C° 0 mm 9 mps 759 mmHg 63%
    12:00 +23°C° 0 mm 8 mps 759 mmHg 57%
    13:00 +23°C° 0 mm 8 mps 759 mmHg 56%
    14:00 +23°C° 0 mm 8 mps 759 mmHg 55%
    15:00 +23°C° 0 mm 8 mps 759 mmHg 55%
    16:00 +23°C° 0 mm 7 mps 759 mmHg 59%
    17:00 +22°C° 0 mm 6 mps 759 mmHg 64%
    18:00 +21°C° 0 mm 5 mps 759 mmHg 68%
    19:00 +20°C° 0 mm 5 mps 759 mmHg 73%
    20:00 +19°C° 0 mm 4 mps 759 mmHg 78%
    21:00 +18°C° 0 mm 4 mps 759 mmHg 83%
    22:00 +18°C° 0.1 mm 4 mps 759 mmHg 86%
    23:00 +18°C° 0.1 mm 3 mps 759 mmHg 89%

    30 July, Sunday

    Time Temperature Precipitation Wind Pressure Humidity
    00:00 +18°C° 0.1 mm 3 mps 758 mmHg 91%
    01:00 +18°C° 0.2 mm 4 mps 758 mmHg 92%
    02:00 +18°C° 0.2 mm 4 mps 757 mmHg 92%
    03:00 +17°C° 0.2 mm 5 mps 757 mmHg 93%
    04:00 +19°C° 0.3 mm 6 mps 756 mmHg 91%
    05:00 +18°C° 0.3 mm 7 mps 756 mmHg 89%
    06:00 +18°C° 0.3 mm 8 mps 755 mmHg 87%
    07:00 +19°C° 0.1 mm 9 mps 755 mmHg 82%
    08:00 +21°C° 0.1 mm 10 mps 755 mmHg 76%
    09:00 +22°C° 0.1 mm 10 mps 755 mmHg 71%
    10:00 +22°C° 0.1 mm 10 mps 755 mmHg 72%
    11:00 +22°C° 0.1 mm 9 mps 755 mmHg 72%
    12:00 +22°C° 0.1 mm 9 mps 755 mmHg 73%
    13:00 +23°C° 0.3 mm 8 mps 755 mmHg 72%
    14:00 +23°C° 0.3 mm 8 mps 755 mmHg 72%
    15:00 +23°C° 0.3 mm 8 mps 755 mmHg 71%
    16:00 +23°C° 0.2 mm 7 mps 755 mmHg 73%
    17:00 +22°C° 0.2 mm 7 mps 755 mmHg 76%
    18:00 +21°C° 0.2 mm 6 mps 755 mmHg 78%
    19:00 +20°C° 0 mm 6 mps 756 mmHg 80%
    20:00 +19°C° 0 mm 6 mps 756 mmHg 81%
    21:00 +17°C° 0 mm 6 mps 756 mmHg 83%
    22:00 +16°C° 0 mm 6 mps 757 mmHg 84%
    23:00 +16°C° 0 mm 6 mps 757 mmHg 85%

    31 July, Monday

    Time Temperature Precipitation Wind Pressure Humidity
    00:00 +15°C° 0 mm 6 mps 757 mmHg 86%
    01:00 +15°C° 0 mm 5 mps 757 mmHg 87%
    02:00 +15°C° 0 mm 5 mps 757 mmHg 88%
    03:00 +14°C° 0 mm 5 mps 757 mmHg 89%
    04:00 +15°C° 0 mm 5 mps 757 mmHg 87%
    05:00 +15°C° 0 mm 5 mps 758 mmHg 85%
    06:00 +16°C° 0 mm 5 mps 758 mmHg 83%
    07:00 +17°C° 0 mm 5 mps 758 mmHg 77%
    08:00 +20°C° 0 mm 5 mps 758 mmHg 71%
    09:00 +21°C° 0 mm 4 mps 758 mmHg 66%
    10:00 +21°C° 0 mm 4 mps 758 mmHg 66%
    11:00 +21°C° 0 mm 4 mps 758 mmHg 65%
    12:00 +22°C° 0 mm 4 mps 758 mmHg 65%
    13:00 +22°C° 0 mm 4 mps 758 mmHg 64%
    14:00 +22°C° 0 mm 4 mps 758 mmHg 62%
    15:00 +23°C° 0 mm 4 mps 758 mmHg 60%
    16:00 +22°C° 0 mm 3 mps 758 mmHg 62%
    17:00 +22°C° 0 mm 3 mps 758 mmHg 65%
    18:00 +22°C° 0 mm 3 mps 758 mmHg 67%
    19:00 +20°C° 0 mm 3 mps 758 mmHg 72%
    20:00 +18°C° 0 mm 2 mps 758 mmHg 77%
    21:00 +17°C° 0 mm 2 mps 758 mmHg 81%
    22:00 +16°C° 0 mm 2 mps 758 mmHg 83%
    23:00 +16°C° 0 mm 1 mps 758 mmHg 84%
    Show more